Preview of NWS' New Version of Forecast
This preview is not operational and should not be used for support decisions.

Regional Weather Roundup (RWR)

Issued by National Weather Service (NWS)

                            
000
ASCA42 TJSJ 221810
RWRPR 
PUERTO RICO/U.S. VIRGIN ISLANDS HOURLY WEATHER ROUNDUP
NATIONAL WEATHER SERVICE SAN JUAN PR
200 PM AST FRI MAR 22 2019

PRZ001>002-007>008-010-221900-
PUERTO RICO
  
CITY           SKY/WX    TMP DP  RH WIND       PRES   REMARKS
SAN JUAN LMM   MOSUNNY   86  70  58 E20       29.98F HX  90           
AGUADILLA      PTSUNNY   82  66  57 N7        30.02F                  
CEIBA          PTSUNNY   82  72  69 E15       30.02F                  
$$

VIZ001>002-221900-
U.S. VIRGIN ISLANDS
  
CITY           SKY/WX    TMP DP  RH WIND       PRES   REMARKS
CHARLOTTE AMA  MOSUNNY   82  70  65 SE16      30.00F                  
$$

HOURLY WEATHER ROUNDUP FOR THE NEWS MEDIA
  
CITY           SKY/WX    TMP DP  RH WIND       PRES   REMARKS
ORLANDO        FAIR      73  45  36 W16G22    30.06F                  
NEW YORK       CLOUDY    45  36  70 W26G39    29.37                   
NEWARK         PTSUNNY   47  34  60 NW25G32   29.38F                  
CHICAGO        FAIR      42  27  55 NE15G24   30.14R                  
HARTFORD       CLOUDY    39  38  96 W14G22    29.11F WCI  31          
BOSTON         LGT RAIN  41  36  82 W16       29.10F                  
DALLAS         PTSUNNY   72  40  31 VRB5      30.16F                  
PHILADELPHIA   CLOUDY    48  28  46 NW23G36   29.51S                  
LOS ANGELES    PTSUNNY   59  47  64 CALM      30.20S                  
WASHINGTON DC  CLOUDY    50  31  48 W16G31    29.63F